[[{"header":{"parameterUnit":"m.s-1","parameterCategory":1,"la1":30.2991,"la2":30.254,"lo1":-89.0895,"lo2":-89.0444,"dy":0.0017,"dx":0.0017,"nx":28,"ny":28,"refTime":"2025-01-27T03:00:00:Z","depth":0,"parameterNumber":2,"parameterNumberName":"U-component_of_WINDS"},"data":[0,0,0,0,0,0,0,0,0,0,0,0,0,0,0,0,0,0,0,0,0,0,0,0,0,0,0,0,0,0,0,0,0,0,0,0,0,0,0,0,0,0,0,0,0,0,0,0,0,0,0,0,0,0,0,0,0,0,-0.4619,-0.4619,0,-0.4648,-0.4649,-0.4649,-0.4628,-0.4627,-0.4626,-0.4625,-0.4657,-0.4659,-0.4661,0,0,0,0,0,0,0,0,0,0,0,0,0,-0.4547,-0.4548,-0.4619,-0.4619,-0.462,-0.4648,-0.4649,-0.4649,-0.4628,-0.4627,-0.4626,-0.4625,-0.4657,-0.4659,-0.4661,0,0,0,0,0,0,0,0,0,0,0,0,0,-0.4577,-0.4548,-0.4619,-0.4613,-0.4612,-0.4648,-0.4649,-0.4649,-0.4628,-0.4627,-0.4625,-0.4624,-0.4656,-0.4659,-0.4661,-0.4706,0,0,-0.4669,-0.467,0,0,0,0,0,0,0,0,-0.4576,-0.458,-0.4613,-0.4613,-0.4613,-0.4633,-0.4635,-0.4668,-0.4629,-0.4622,-0.4625,-0.4623,-0.4651,-0.4654,-0.4662,-0.4707,-0.4709,-0.467,-0.4671,-0.4672,-0.4673,0,0,0,0,0,0,0,-0.4573,-0.4579,-0.4631,-0.4614,-0.4613,-0.4609,-0.4612,-0.4641,-0.4644,-0.4623,-0.4621,-0.4625,-0.465,-0.466,-0.4663,-0.4709,-0.4669,-0.4672,-0.4673,-0.4674,-0.4793,-0.4794,0,0,0,0,0,0,-0.4572,-0.4577,-0.463,-0.4632,-0.459,-0.4611,-0.4614,-0.4628,-0.4644,-0.4645,-0.4626,-0.4624,-0.4656,-0.466,-0.4664,-0.4718,-0.4672,-0.4675,-0.4676,-0.4791,-0.4793,-0.4795,0,0,0,0,0,0,-0.457,-0.4577,-0.4629,-0.4604,-0.461,-0.4614,-0.4629,-0.4629,-0.4639,-0.4646,-0.4647,-0.4635,-0.4655,-0.466,-0.4695,-0.4718,-0.4676,-0.4678,-0.4789,-0.4792,-0.4794,-0.4825,0,0,0,0,0,0,-0.4568,-0.4576,-0.4593,-0.4604,-0.4611,-0.4659,-0.4631,-0.4631,-0.4643,-0.464,-0.4655,-0.4656,-0.4654,-0.4692,-0.4698,-0.4721,-0.468,-0.4787,-0.479,-0.4793,-0.4822,-0.4828,-0.4834,0,0,0,0,0,-0.4566,-0.4601,-0.4594,-0.46,-0.4632,-0.4661,-0.4665,-0.4662,-0.4645,-0.4662,-0.4667,-0.4656,-0.4714,-0.4695,-0.4703,-0.4727,-0.4786,-0.4789,-0.4793,-0.482,-0.4827,-0.4834,0,0,0,0,0,0,-0.4593,-0.4602,-0.4595,-0.4635,-0.4647,-0.4657,-0.4679,-0.467,-0.4688,-0.4684,-0.468,-0.4684,-0.4721,-0.4727,-0.4706,-0.4771,-0.4748,-0.4753,-0.4766,-0.4773,-0.4778,-0.4777,-0.4682,0,0,0,0,0,-0.4604,-0.4625,-0.4632,-0.4667,-0.4673,-0.4675,-0.4687,-0.4683,-0.4696,-0.4702,-0.4709,-0.4723,-0.4744,-0.4759,-0.4779,-0.4822,-0.4826,-0.4843,-0.4848,-0.4853,-0.4858,-0.4882,-0.489,-0.4806,-0.4806,-0.4806,0,0,-0.4626,-0.4634,-0.4648,-0.4673,-0.4682,-0.4705,-0.468,-0.4705,-0.4723,-0.4706,-0.474,-0.4745,-0.476,-0.48,-0.4818,-0.4806,-0.4881,-0.4857,-0.4861,-0.4864,-0.4886,-0.4894,-0.4901,-0.4809,-0.4808,-0.4808,0,0,-0.4679,-0.4687,-0.4716,-0.4726,-0.4739,-0.474,-0.4747,-0.4758,-0.4761,-0.4795,-0.4783,-0.4803,-0.484,-0.4852,-0.4862,-0.4918,-0.4909,-0.4925,-0.4955,-0.4979,-0.4985,-0.4991,-0.5012,-0.5019,-0.4929,-0.4929,-0.4929,0,-0.4706,-0.4739,-0.4733,-0.4759,-0.4771,-0.4755,-0.4786,-0.4796,-0.4816,-0.4824,-0.4811,-0.4857,-0.4866,-0.4908,-0.4922,-0.493,-0.4939,-0.4924,-0.4985,-0.499,-0.4996,-0.5016,-0.5023,-0.4931,-0.4931,-0.4931,-0.4931,0,-0.4772,-0.4795,-0.4818,-0.4836,-0.485,-0.4879,-0.4877,-0.4892,-0.4887,-0.4889,-0.4923,-0.4933,-0.4955,-0.4964,-0.496,-0.5006,-0.4999,-0.4985,-0.4962,-0.5006,-0.5024,-0.5032,-0.4934,-0.4933,-0.4933,-0.4932,0,0,-0.4845,-0.4858,-0.4867,-0.4875,-0.4888,-0.4907,-0.4934,-0.4955,-0.4968,-0.4982,-0.5006,-0.5037,-0.5024,-0.5036,-0.5032,-0.5053,-0.5097,-0.5037,-0.5037,-0.5048,-0.515,-0.5161,-0.517,-0.509,-0.5092,-0.5093,-0.5149,0,-0.4899,-0.4946,-0.4941,-0.4987,-0.5009,-0.4994,-0.5018,-0.5029,-0.5031,-0.5051,-0.5053,-0.5076,-0.5057,-0.5064,-0.5083,-0.5088,-0.5118,-0.5083,-0.5113,-0.5115,-0.5112,-0.5179,-0.5191,-0.5244,-0.5156,-0.5157,-0.5158,0,-0.4969,-0.4985,-0.5032,-0.5042,-0.5051,-0.5072,-0.5091,-0.5109,-0.5121,-0.5122,-0.5134,-0.5127,-0.5155,-0.513,-0.517,-0.5146,-0.5158,-0.5162,-0.5164,-0.5168,-0.514,-0.5187,-0.5261,-0.5269,-0.5169,-0.5168,-0.5168,0,-0.5019,-0.5051,-0.5084,-0.5091,-0.5103,-0.5119,-0.5125,-0.5135,-0.5148,-0.5164,-0.5172,-0.5192,-0.5203,-0.5218,-0.5216,-0.5198,-0.5257,-0.5231,-0.5259,-0.5259,-0.5273,-0.5273,-0.5352,-0.5278,-0.5278,-0.5278,-0.5278,0,-0.5081,-0.5111,-0.5106,-0.5127,-0.516,-0.5153,-0.5187,-0.519,-0.52,-0.5221,-0.5209,-0.523,-0.5225,-0.5246,-0.5244,-0.5277,-0.5282,-0.5284,-0.5284,-0.5286,-0.5286,-0.5295,-0.5292,-0.528,-0.528,-0.5279,-0.5279,0,-0.5143,-0.5141,-0.5176,-0.5183,-0.5186,-0.521,-0.5217,-0.5237,-0.5237,-0.5264,-0.527,-0.5272,-0.5295,-0.5294,-0.5321,-0.532,-0.5361,-0.5356,-0.5357,-0.5356,-0.5384,-0.5382,-0.5473,-0.5485,-0.5403,-0.5404,-0.5404,0,-0.5183,-0.5206,-0.5216,-0.5228,-0.5235,-0.5256,-0.5269,-0.5263,-0.5276,-0.5292,-0.5309,-0.5331,-0.5349,-0.5387,-0.5391,-0.5411,-0.5407,-0.5437,-0.541,-0.5412,-0.5409,-0.5408,-0.5411,-0.5443,-0.5444,-0.5445,-0.5446,0,-0.5256,-0.5253,-0.5271,-0.5289,-0.5304,-0.5318,-0.5331,-0.5342,-0.5337,-0.5353,-0.5377,-0.539,-0.5416,-0.5439,-0.5458,-0.5465,-0.5455,-0.5454,-0.5461,-0.5465,-0.5465,-0.5466,-0.5373,-0.5452,-0.5451,-0.5451,-0.5451,-0.545,-0.5309,-0.5329,-0.5338,-0.5359,-0.5367,-0.5379,-0.5398,-0.54,-0.5419,-0.544,-0.5435,-0.5461,-0.5473,-0.5498,-0.5506,-0.5527,-0.5516,-0.5527,-0.553,-0.5533,-0.5537,-0.546,-0.553,-0.553,-0.553,-0.5529,-0.5529,0,-0.5382,-0.5387,-0.5406,-0.5423,-0.544,-0.5427,-0.544,-0.5455,-0.5478,-0.5489,-0.5506,-0.5533,-0.5554,-0.5559,-0.5579,-0.5595,-0.5591,-0.5601,-0.5601,-0.5602,-0.5545,-0.5536,-0.5604,-0.5604,-0.5604,-0.5604,-0.5604,-0.5604,-0.5422,-0.5454,-0.5453,-0.5489,-0.5494,-0.5519,-0.5528,-0.5539,-0.5548,-0.5578,-0.5595,-0.5598,-0.5607,-0.5628,-0.5647,-0.5648,-0.5656,-0.5668,-0.5668,-0.5614,-0.5606,-0.5599,-0.5592,-0.567,-0.567,-0.5724,-0.5724,-0.5725]},{"header":{"parameterUnit":"m.s-1","parameterCategory":1,"la1":30.2991,"la2":30.254,"lo1":-89.0895,"lo2":-89.0444,"dy":0.0017,"dx":0.0017,"nx":28,"ny":28,"refTime":"2025-01-27T03:00:00:Z","depth":0,"parameterNumber":3,"parameterNumberName":"V-component_of_WINDS"},"data":[0,0,0,0,0,0,0,0,0,0,0,0,0,0,0,0,0,0,0,0,0,0,0,0,0,0,0,0,0,0,0,0,0,0,0,0,0,0,0,0,0,0,0,0,0,0,0,0,0,0,0,0,0,0,0,0,0,0,-0.467,-0.4671,0,-0.4739,-0.4739,-0.474,-0.4739,-0.4738,-0.4737,-0.4736,-0.4807,-0.4809,-0.4812,0,0,0,0,0,0,0,0,0,0,0,0,0,-0.4537,-0.454,-0.467,-0.4671,-0.4672,-0.4739,-0.4739,-0.474,-0.4739,-0.4738,-0.4737,-0.4736,-0.4806,-0.4809,-0.4812,0,0,0,0,0,0,0,0,0,0,0,0,0,-0.4599,-0.454,-0.467,-0.4679,-0.4681,-0.4738,-0.4739,-0.4741,-0.4739,-0.4738,-0.4737,-0.4735,-0.4805,-0.4809,-0.4813,-0.4866,0,0,-0.4825,-0.4827,0,0,0,0,0,0,0,0,-0.4596,-0.4604,-0.4677,-0.4679,-0.468,-0.4729,-0.4718,-0.4783,-0.474,-0.4717,-0.4736,-0.4735,-0.4782,-0.4788,-0.4804,-0.4869,-0.4872,-0.4825,-0.4828,-0.483,-0.4831,0,0,0,0,0,0,0,-0.4591,-0.4601,-0.4697,-0.4678,-0.468,-0.468,-0.4687,-0.4731,-0.4756,-0.4719,-0.4719,-0.4727,-0.4782,-0.48,-0.4805,-0.4873,-0.4825,-0.4829,-0.4832,-0.4833,-0.4985,-0.4986,0,0,0,0,0,0,-0.4585,-0.4598,-0.4695,-0.4699,-0.4634,-0.4683,-0.4691,-0.4715,-0.4756,-0.4761,-0.4728,-0.4727,-0.4793,-0.48,-0.4808,-0.4873,-0.483,-0.4834,-0.4836,-0.4983,-0.4985,-0.4987,0,0,0,0,0,0,-0.4582,-0.4594,-0.4692,-0.4648,-0.4661,-0.4687,-0.4713,-0.4717,-0.4734,-0.4763,-0.4767,-0.4741,-0.4793,-0.4802,-0.4851,-0.4875,-0.4835,-0.4839,-0.4981,-0.4984,-0.4986,-0.5003,0,0,0,0,0,0,-0.4579,-0.4593,-0.4614,-0.4649,-0.4663,-0.4735,-0.4715,-0.4719,-0.4741,-0.474,-0.4776,-0.4781,-0.4792,-0.4845,-0.4855,-0.488,-0.4842,-0.4979,-0.4982,-0.4985,-0.5001,-0.5006,-0.501,0,0,0,0,0,-0.4574,-0.4616,-0.4615,-0.4627,-0.469,-0.4736,-0.4745,-0.4757,-0.4743,-0.4764,-0.4782,-0.478,-0.487,-0.485,-0.4861,-0.4888,-0.4978,-0.4981,-0.4985,-0.4999,-0.5005,-0.501,0,0,0,0,0,0,-0.4583,-0.4621,-0.462,-0.4675,-0.4702,-0.4736,-0.4763,-0.4763,-0.4795,-0.4793,-0.4806,-0.4814,-0.4864,-0.488,-0.4857,-0.4941,-0.4922,-0.4928,-0.4929,-0.4935,-0.494,-0.4936,-0.4846,0,0,0,0,0,-0.4591,-0.4626,-0.4657,-0.4702,-0.4716,-0.4737,-0.4758,-0.4765,-0.4794,-0.4806,-0.4828,-0.4856,-0.4891,-0.4914,-0.4947,-0.5002,-0.501,-0.5026,-0.5031,-0.5035,-0.504,-0.5071,-0.5078,-0.4998,-0.4998,-0.4998,0,0,-0.4609,-0.4634,-0.4656,-0.4705,-0.4727,-0.4763,-0.4747,-0.4786,-0.4812,-0.4811,-0.486,-0.4876,-0.4909,-0.4961,-0.4985,-0.4977,-0.5064,-0.5039,-0.5042,-0.5046,-0.5075,-0.5083,-0.509,-0.5001,-0.5,-0.5,0,0,-0.4661,-0.4683,-0.4723,-0.4745,-0.4779,-0.4792,-0.4802,-0.4835,-0.4846,-0.4895,-0.4895,-0.4926,-0.4986,-0.5009,-0.5028,-0.5087,-0.5086,-0.5097,-0.5123,-0.5153,-0.5159,-0.5165,-0.5187,-0.5194,-0.5102,-0.5102,-0.5102,0,-0.4679,-0.4733,-0.4744,-0.4783,-0.4804,-0.4804,-0.4845,-0.4866,-0.4909,-0.4924,-0.4913,-0.4988,-0.501,-0.5068,-0.5082,-0.5097,-0.5109,-0.5094,-0.5157,-0.5163,-0.5169,-0.5189,-0.5197,-0.5103,-0.5103,-0.5103,-0.5103,0,-0.4754,-0.4791,-0.482,-0.4861,-0.4886,-0.4925,-0.4942,-0.4965,-0.4969,-0.4983,-0.5032,-0.5058,-0.5097,-0.511,-0.5115,-0.5169,-0.5163,-0.5154,-0.5136,-0.5177,-0.5197,-0.5205,-0.5105,-0.5105,-0.5104,-0.5104,0,0,-0.4815,-0.4861,-0.4871,-0.489,-0.4926,-0.4955,-0.4994,-0.5032,-0.5052,-0.5081,-0.5115,-0.5164,-0.5157,-0.5179,-0.5185,-0.5211,-0.5256,-0.52,-0.5201,-0.521,-0.5318,-0.5325,-0.5334,-0.5255,-0.5256,-0.5257,-0.5316,0,-0.4871,-0.4942,-0.4952,-0.5013,-0.5048,-0.5047,-0.5081,-0.5107,-0.5121,-0.5152,-0.5167,-0.5202,-0.5189,-0.5203,-0.5228,-0.5245,-0.5278,-0.5241,-0.5287,-0.5288,-0.5281,-0.5345,-0.5353,-0.5407,-0.5324,-0.5325,-0.5326,0,-0.4947,-0.4978,-0.5043,-0.5074,-0.5089,-0.512,-0.5155,-0.5184,-0.5213,-0.5221,-0.5245,-0.5248,-0.5288,-0.5266,-0.5322,-0.5297,-0.5315,-0.5326,-0.5329,-0.5335,-0.5311,-0.5354,-0.5424,-0.5433,-0.5338,-0.5337,-0.5336,0,-0.4987,-0.5044,-0.5091,-0.5106,-0.5144,-0.5165,-0.5181,-0.5209,-0.5231,-0.5261,-0.5275,-0.531,-0.5329,-0.5355,-0.5367,-0.535,-0.5423,-0.5402,-0.5431,-0.5431,-0.5448,-0.5447,-0.5524,-0.5457,-0.5457,-0.5457,-0.5457,0,-0.5049,-0.509,-0.5109,-0.5138,-0.5183,-0.5193,-0.5237,-0.5253,-0.5277,-0.5308,-0.5309,-0.5339,-0.5352,-0.5384,-0.5393,-0.5438,-0.5446,-0.5454,-0.5457,-0.5455,-0.5455,-0.5469,-0.5467,-0.5459,-0.5459,-0.5458,-0.5458,0,-0.5102,-0.5117,-0.5168,-0.5198,-0.5207,-0.5239,-0.5265,-0.5292,-0.5305,-0.5345,-0.5355,-0.5375,-0.5412,-0.5426,-0.5471,-0.5477,-0.553,-0.5528,-0.552,-0.5522,-0.5551,-0.5548,-0.5641,-0.5654,-0.5577,-0.5578,-0.5578,0,-0.5142,-0.5173,-0.5207,-0.5228,-0.5245,-0.5279,-0.5301,-0.5312,-0.5335,-0.5369,-0.5393,-0.543,-0.546,-0.5519,-0.5538,-0.5572,-0.5573,-0.5602,-0.5578,-0.5576,-0.5575,-0.5574,-0.5577,-0.5608,-0.5609,-0.5609,-0.561,0,-0.5212,-0.5218,-0.525,-0.5284,-0.5311,-0.5338,-0.5365,-0.5382,-0.5397,-0.5422,-0.546,-0.5484,-0.5529,-0.5566,-0.5601,-0.5618,-0.5617,-0.5617,-0.5626,-0.5626,-0.5621,-0.5625,-0.5535,-0.5615,-0.5615,-0.5614,-0.5614,-0.5614,-0.5261,-0.5289,-0.5316,-0.5352,-0.5373,-0.5398,-0.5425,-0.5441,-0.5473,-0.5511,-0.5515,-0.5556,-0.5583,-0.563,-0.5648,-0.5679,-0.5672,-0.5684,-0.5688,-0.5691,-0.5694,-0.5614,-0.5686,-0.5685,-0.5685,-0.5685,-0.5685,0,-0.5332,-0.535,-0.5382,-0.5419,-0.5447,-0.5442,-0.5471,-0.5495,-0.5531,-0.5556,-0.5586,-0.5629,-0.5664,-0.5685,-0.572,-0.5742,-0.5742,-0.5751,-0.575,-0.5754,-0.5698,-0.5688,-0.575,-0.575,-0.575,-0.575,-0.575,-0.575,-0.5373,-0.5419,-0.5427,-0.5484,-0.5501,-0.5541,-0.5558,-0.5581,-0.5601,-0.5649,-0.5679,-0.5692,-0.5715,-0.5752,-0.5784,-0.5789,-0.5802,-0.5812,-0.5817,-0.5765,-0.5758,-0.5752,-0.5742,-0.5815,-0.5815,-0.587,-0.5871,-0.5871]}]]